{"data":{"norad_id":66277,"intl_designator":"2025-247N","name":"STARLINK-35708","alt_names":[],"object_type":"PAYLOAD","status":"ACTIVE","operator":null,"country":"US","launch_date":"2025-10-31","launch_site_code":"AFWTR","launch_vehicle":null,"mission":null,"orbit_class":"UNKNOWN","rcs_meters":null,"size_class":null,"mass_kg":null,"dimensions":null,"purposes":["comms"],"wikipedia_slug":null,"has_3d_model":false,"image_url":null,"decayed_at":null,"tle_current":{"epoch":"2026-05-25T03:32:44.024928Z","epoch_age_seconds":56209,"freshness":"FRESH","line1":"1 66277U 25247N   26145.14773177  .00023974  00000+0  71828-3 0  9996","line2":"2 66277  53.1587 195.3177 0000981  78.1471 281.9641 15.34405533 32805","mean_motion":15.34405533,"eccentricity":9.81e-5,"inclination_deg":53.1587,"raan_deg":195.3177,"arg_perigee_deg":78.1471,"mean_anomaly_deg":281.9641,"bstar":0.00071828,"rev_number":3280,"period_min":93.847419670377,"perigee_km":462.0157102002,"apogee_km":463.35787982879,"semimajor_km":6840.8237950145,"source":"CELESTRAK","updated_at":"2026-05-25T13:38:21.162332Z"}}}